Lexington Weather

Lexington, Massachusetts, USA

72°F
8/7/2020 11:05am 
  • Lexington Conditions: Clear
  • Temperature: 72.0°F / 22.2°CWarmer 2.4°F than last hour.
  • Dew Point: 63.1°FIncreased 1.4°Fsince last hour.
  • Relative Humidity: 74%Decreased 2.0% since last hour.
  • Wind: Wind from WSW WSW 1 mph, 10-min avg: Calm, gust: 2 mph
  • Barometer: 30.15 in Steady
  • Visibility: 10 miles
  • Rain Today: 0.00 in
  •   

Regional Weather Roundup
for Boston / Norton, MA

        
000
ASUS41 KBOX 030004
RWRBOX

REGIONAL WEATHER ROUNDUP
NATIONAL WEATHER SERVICE BOSTON/NORTON MA
800 PM EDT SUN AUG 02 2020

NOTE:  "FAIR" INDICATES FEW OR NO CLOUDS BELOW 12,000 FEET WITH NO 
SIGNIFICANT WEATHER AND/OR OBSTRUCTIONS TO VISIBILITY.

MAZALL-030100-
EASTERN MASSACHUSETTS
  
CITY           SKY/WX    TMP DP  RH WIND       PRES   REMARKS
BOSTON         CLOUDY    77  72  84 S15       29.92R                  
6HR MIN TEMP:  76; 6HR MAX TEMP:  87; 6HR PCP:  0.07;                

BEVERLY        CLOUDY    73  71  93 SE6       29.91F                  
LAWRENCE       CLOUDY    75  73  93 VRB5      29.93S                  
BEDFORD        CLOUDY    76  73  91 S7        29.90F                  
BLUE HILL      NOT AVBL                                               
NORWOOD        CLOUDY    80  72  76 S10       29.91S                  
MARSHFIELD     CLOUDY    81  75  83 S14G22    29.92F                  
PLYMOUTH       CLOUDY    77  73  87 S12       29.94F                  
TAUNTON        CLOUDY    79  73  82 S9        29.93S                  
NEW BEDFORD    CLOUDY    78  75  90 S15G23    29.93F                  
$$

MAZALL-030100-
CAPE COD AND THE ISLANDS
  
CITY           SKY/WX    TMP DP  RH WIND       PRES   REMARKS
FALMOUTH       CLOUDY    75  73  94 S20G29    29.95F                  
HYANNIS        CLOUDY    77  72  84 S10G22    29.95S                  
CHATHAM        CLOUDY    71  67  87 S9G17     29.99S                  
PROVINCETOWN   MOCLDY    75  71  87 S13G23    29.96S                  
NANTUCKET      CLOUDY    73  70  90 SE17      29.97F                  
MARTHAS VNYRD  PTCLDY    73  71  93 S14       29.95F                  
$$
 
MAZALL-030100-
CENTRAL AND WESTERN MASSACHUSETTS
  
CITY           SKY/WX    TMP DP  RH WIND       PRES   REMARKS
WORCESTER      CLOUDY    75  73  93 S10       29.94S                  
6HR MIN TEMP:  73; 6HR MAX TEMP:  84; 6HR PCP:  0.47;                

FITCHBURG      CLOUDY    76  72  87 SE8       29.91S                  
ORANGE         CLOUDY    77  74  90 S8        29.90S                  
SPRINGFIELD    MOCLDY    78  74  87 S9        29.86S                  
WESTFIELD      CLOUDY    78  76  93 SE9       29.86S                  
NORTH ADAMS    MOCLDY    81  72  74 SE14G22   29.85R                  
PITTSFIELD     MOCLDY    78  73  84 VRB5      29.87R                  
$$
 
RIZALL-030100-
RHODE ISLAND
  
CITY           SKY/WX    TMP DP  RH WIND       PRES   REMARKS
PROVIDENCE     LGT RAIN  78  76  93 S14       29.92F                  
6HR MIN TEMP:  77; 6HR MAX TEMP:  82; 6HR PCP: TRACE;                

NEWPORT        CLOUDY    78  75  90 SE14      29.93S                  
BLOCK ISLAND   CLOUDY    77  75  93 S13       29.93S                  
SMITHFIELD     CLOUDY    76  75  97 VRB5      29.93F                  
WESTERLY       CLOUDY    77  73  87 S8        29.92S                  
$$
 
CTZALL-030100-
CONNECTICUT
  
CITY           SKY/WX    TMP DP  RH WIND       PRES   REMARKS
BRADLEY INTL   MOCLDY    79  75  87 SE14      29.85S                  
6HR MIN TEMP:  75; 6HR MAX TEMP:  80; 6HR PCP:  0.06;                

HARTFORD       MOCLDY    81  75  82 S8        29.85S                  
BRIDGEPORT     PTCLDY    81  75  82 S14G21    29.85S                  
DANBURY        PTCLDY    80  74  81 S8        29.86R                  
GROTON         CLOUDY    76  74  93 SE12      29.89F                  
NEW HAVEN      PTCLDY    81  77  88 S6        29.86S                  
CHESTER        NOT AVBL                                               
MERIDEN        CLOUDY    80  75  84 S9        29.86S                  
WILLIMANTIC    CLOUDY    79  75  87 S7        29.90R                  
OXFORD         CLOUDY    78  75  90 S12       29.89S                  
$$

MEZ002-015-021-024-NHZ003-005-008-011-012-014-VTZ005-008-030100-
NORTHERN NEW ENGLAND
  
CITY           SKY/WX    TMP DP  RH WIND       PRES   REMARKS
PORTLAND ME    CLOUDY    76  65  68 S12       29.93S                  
6HR MIN TEMP:  76; 6HR MAX TEMP:  81;                                

BANGOR ME      CLOUDY    73  63  70 S14       29.96S                  
CONCORD NH     CLOUDY    77  70  79 S8        29.89F                  
MANCHESTER NH  CLOUDY    79  72  79 S14       29.89S                  
NASHUA NH      CLOUDY    77  76  96 SE7       29.90F                  
PORTSMOUTH NH  CLOUDY    74  67  77 SE13      29.90                   
JAFFREY NH     CLOUDY    75  71  87 S5        29.93S                  
KEENE NH       CLOUDY    77  73  87 S9        29.88S                  
BURLINGTON VT  MOCLDY    80  67  64 SE13      29.74S                  
MT. WASHINGTON FOG       55  55 100 S28G39      N/A  VSB 0            
$$

NYZ052-076-030100-
EASTERN NEW YORK
  
CITY           SKY/WX    TMP DP  RH WIND       PRES   REMARKS
ALBANY         PTCLDY    80  73  79 SE9       29.79R                  
6HR MIN TEMP:  74; 6HR MAX TEMP:  84;                                

NEW YORK CITY  PTCLDY    87  73  62 S13       29.83R HX  94           
6HR MIN TEMP:  87; 6HR MAX TEMP:  90;                                

$$
 
ANZALL-030100-
MARINE OBSERVATIONS
  
STATION/POSITION TIME  TEMP    WIND        PRES    VSBY  WAVE
                       AIR SEA DIR/SP/G                  HT/PER
                 (UTC) (F)     (DEG/KT/KT) (MB)    (MI)  (FT/S)
BOSTON BUOY      2350   72 67  140/ 16/ 17 1011.9F         3/ 4
BUZZARDS BAY     2300          150/ 20/ 22 1014.3F
NANTUCKET SOUND  2340      76  160/ 19/ 25   N/A
MASS BAY-STELLWA 2304   74     180/ 21/ 25 1011.3F  1 7/8  4/ 5
ISLE OF SHOALS   2300   73     160/ 25/ 26 1012.3F
S OF BLOCK IS    2326      73                N/A           4/ 5
$$

......................KEY.........................
  SKY/WX - SKY CONDITION/PRESENT WEATHER
  TMP    - TEMPERATURE IN FAHRENHEIT
  DWPT   - DEWPOINT IN FAHRENHEIT
  RH     - RELATIVE HUMIDITY IN PERCENT
  WIND   - DIRECTION AND SPEED IN MPH
  PRES   - MEAN SEA LEVEL PRESSURE IN INCHES OF HG
  WCI    - WIND CHILL INDEX
  VSB    - VISIBILITY IN MILES
  HX     - HEAT INDEX
  TC     - TEMPERATURE IN CELSIUS
  VRB    - VARIABLE WIND DIRECTION
  N/A    - NOT AVAILABLE
  
      

Other recent Regional Weather Roundups

Fri Aug 7, 10:04am

Fri Aug 7, 9:04am

Fri Aug 7, 8:04am

Fri Aug 7, 7:04am

Fri Aug 7, 6:04am

Fri Aug 7, 5:04am

Fri Aug 7, 4:04am

Fri Aug 7, 3:04am

Fri Aug 7, 2:04am

Fri Aug 7, 1:05am

Fri Aug 7, 12:04am

Thu Aug 6, 11:04pm

Thu Aug 6, 10:04pm

Thu Aug 6, 9:04pm

Thu Aug 6, 8:04pm

Thu Aug 6, 7:04pm

Thu Aug 6, 6:04pm

Thu Aug 6, 5:04pm

Thu Aug 6, 4:05pm

Thu Aug 6, 3:04pm

Thu Aug 6, 2:05pm

Thu Aug 6, 1:04pm

Thu Aug 6, 12:04pm

Thu Aug 6, 11:04am

Thu Aug 6, 10:04am

Thu Aug 6, 9:04am

Thu Aug 6, 8:04am

Thu Aug 6, 7:04am

Thu Aug 6, 6:04am

Thu Aug 6, 5:04am

Thu Aug 6, 4:04am

Thu Aug 6, 3:04am

Thu Aug 6, 2:05am

Thu Aug 6, 1:04am

Thu Aug 6, 12:04am

Wed Aug 5, 11:04pm

Wed Aug 5, 10:04pm

Wed Aug 5, 9:04pm

Wed Aug 5, 8:05pm

Wed Aug 5, 7:04pm

Wed Aug 5, 6:04pm

Wed Aug 5, 5:04pm

Wed Aug 5, 4:05pm

Wed Aug 5, 3:04pm

Wed Aug 5, 2:04pm

Wed Aug 5, 1:04pm

Wed Aug 5, 12:04pm

Wed Aug 5, 11:04am

Wed Aug 5, 10:04am

Wed Aug 5, 9:04am

Wed Aug 5, 8:04am

Wed Aug 5, 7:04am

Wed Aug 5, 6:04am

Wed Aug 5, 5:04am

Wed Aug 5, 4:04am

Wed Aug 5, 3:04am

Wed Aug 5, 2:05am

Wed Aug 5, 1:04am

Wed Aug 5, 12:05am

Tue Aug 4, 11:05pm

Tue Aug 4, 10:05pm

Tue Aug 4, 9:04pm

Tue Aug 4, 8:04pm

Tue Aug 4, 7:05pm

Tue Aug 4, 6:05pm

Tue Aug 4, 5:05pm

Tue Aug 4, 4:05pm

Tue Aug 4, 3:04pm

Tue Aug 4, 2:05pm

Tue Aug 4, 1:04pm

Tue Aug 4, 12:05pm

Tue Aug 4, 11:04am

Tue Aug 4, 10:04am

Tue Aug 4, 9:04am

Tue Aug 4, 8:04am

Tue Aug 4, 7:04am

Tue Aug 4, 6:04am

Tue Aug 4, 5:04am

Tue Aug 4, 4:04am

Tue Aug 4, 3:04am

Tue Aug 4, 2:04am

Tue Aug 4, 1:04am

Tue Aug 4, 12:04am

Mon Aug 3, 11:04pm

Mon Aug 3, 10:04pm

Mon Aug 3, 9:04pm

Mon Aug 3, 8:05pm

Mon Aug 3, 7:04pm

Mon Aug 3, 6:04pm

Mon Aug 3, 5:04pm

Mon Aug 3, 4:05pm

Mon Aug 3, 3:04pm

Mon Aug 3, 2:04pm

Mon Aug 3, 1:04pm

Mon Aug 3, 12:05pm

Mon Aug 3, 11:04am

Mon Aug 3, 10:04am

Mon Aug 3, 9:05am

Mon Aug 3, 8:04am

Mon Aug 3, 7:04am

Mon Aug 3, 6:04am

Mon Aug 3, 5:04am

Mon Aug 3, 4:04am

Mon Aug 3, 3:04am

Mon Aug 3, 2:04am

Mon Aug 3, 1:04am

Mon Aug 3, 12:05am

Sun Aug 2, 11:04pm

Sun Aug 2, 10:04pm

Sun Aug 2, 9:04pm

Sun Aug 2, 7:04pm

Sun Aug 2, 6:04pm

Sun Aug 2, 5:04pm

Sun Aug 2, 4:05pm

Sun Aug 2, 3:04pm

Sun Aug 2, 2:05pm

Sun Aug 2, 1:04pm

Sun Aug 2, 12:04pm

Sun Aug 2, 11:04am

Sun Aug 2, 10:04am

Sun Aug 2, 9:05am

Sun Aug 2, 8:05am

Sun Aug 2, 7:04am

Sun Aug 2, 6:04am

Sun Aug 2, 5:04am

Sun Aug 2, 4:05am

Sun Aug 2, 3:04am

Sun Aug 2, 2:04am

Sun Aug 2, 1:04am

Sun Aug 2, 12:05am

Sat Aug 1, 11:04pm

Sat Aug 1, 10:04pm

Sat Aug 1, 9:04pm

Sat Aug 1, 8:05pm

Sat Aug 1, 7:04pm

Sat Aug 1, 6:04pm

Sat Aug 1, 5:05pm

Sat Aug 1, 4:05pm

Sat Aug 1, 3:04pm

Sat Aug 1, 2:04pm

Sat Aug 1, 1:04pm

Sat Aug 1, 12:04pm

Sat Aug 1, 11:05am

Sat Aug 1, 10:05am

Sat Aug 1, 9:04am

Sat Aug 1, 8:04am

Sat Aug 1, 7:04am

Sat Aug 1, 6:04am

Sat Aug 1, 5:04am

Sat Aug 1, 4:05am

Sat Aug 1, 3:04am

Sat Aug 1, 2:04am

Sat Aug 1, 1:04am

Sat Aug 1, 12:05am

Fri Jul 31, 11:05pm

Fri Jul 31, 10:04pm

Fri Jul 31, 9:04pm

Fri Jul 31, 8:05pm

Fri Jul 31, 7:05pm

Fri Jul 31, 6:04pm

Fri Jul 31, 5:04pm

Fri Jul 31, 4:05pm

Fri Jul 31, 3:04pm

Fri Jul 31, 2:05pm

Fri Jul 31, 1:04pm

Fri Jul 31, 12:04pm

Fri Jul 31, 11:04am

Meta data:

ID: e120e4fe-27ab-4d7c-a0ff-bcd381fdfa4b
Link: https://api.weather.gov/products/e120e4fe-27ab-4d7c-a0ff-bcd381fdfa4b